Home > Weather > Oklahoma City > Past weeks

Flag for USA Past Weather in Oklahoma City, Oklahoma, USA — Yesterday and Last 2 Weeks

Now
76 °F

Clear.


Feels Like: 76 °F
Forecast: 76 / 96 °F
Wind: 7 mph from Southeast

Location: Will Rogers World Airport

Current Time: Jul 31, 2016 at 2:25:39 AM

Latest Report: Jul 31, 2016 at 1:52 AM


Visibility: 10 mi

Pressure: 29.88 "Hg

Humidity: 85%

Dew Point: 71 °F

Location of Oklahoma CityLocation

Past Weather in Oklahoma City — Graph

°F

Oklahoma City Temperature Yesterday

Maximum temperature yesterday: 91 °F (at 4:52 PM)
Minimum temperature yesterday: 72 °F (at 1:52 AM)
Average temperature yesterday: 81 °F

High & Low Weather Summary for the Past Weeks

 TemperatureHumidityPressure
High100 °F (Jul 23, 2:52 PM)100% (Jul 26, 12:56 AM)30.17 "Hg (Jul 26, 12:56 AM)
Low67 °F (Jul 29, 7:52 AM)30% (Jul 22, 3:52 PM)29.81 "Hg (Jul 23, 6:52 PM)
Average83 °F67%29.97 "Hg
* Reported Jul 16 12:52 AM — Jul 31 12:52 AM, Oklahoma City, Weather by CustomWeather, © 2016

Note: Actual official high and low records may vary slightly from our data, if they occured in-between our weather recording intervals... More about our weather records

Advertising

Oklahoma City Weather History for the Previous 24 Hours

Scroll right to see more
 ConditionsComfort  
Time TempWeatherWind HumidityBarometerVisibility
12:52 AM
Sun, Jul 31
77 °FPassing clouds.7 mph82%29.89 "Hg10 mi
11:52 PM
Sat, Jul 30
76 °FClear.6 mph85%29.89 "Hg10 mi
10:52 PM77 °FPassing clouds.5 mph82%29.89 "Hg10 mi
9:52 PM82 °FPassing clouds.8 mph70%29.87 "Hg10 mi
8:52 PM84 °FScattered clouds.12 mph74%29.85 "Hg10 mi
7:52 PM86 °FBroken clouds.15 mph72%29.84 "Hg10 mi
6:52 PM89 °FBroken clouds.10 mph65%29.84 "Hg10 mi
5:52 PM91 °FScattered clouds.7 mph57%29.85 "Hg10 mi
4:52 PM91 °FScattered clouds.7 mph60%29.87 "Hg10 mi
3:52 PM90 °FScattered clouds.3 mph59%29.90 "Hg10 mi
2:52 PM87 °FScattered clouds.7 mph65%29.92 "Hg10 mi
1:52 PM88 °FScattered clouds.7 mph61%29.93 "Hg10 mi
12:52 PM85 °FBroken clouds.6 mph65%29.93 "Hg10 mi
11:52 AM84 °FBroken clouds.5 mph65%29.93 "Hg10 mi
10:52 AM80 °FBroken clouds.7 mph76%29.95 "Hg10 mi
9:52 AM79 °FBroken clouds.7 mph77%29.96 "Hg10 mi
8:52 AM77 °FBroken clouds.5 mph85%29.96 "Hg10 mi
7:52 AM75 °FBroken clouds.6 mph90%29.93 "Hg10 mi
6:52 AM73 °FPartly cloudy.3 mph90%29.93 "Hg10 mi
5:52 AM73 °FPassing clouds.6 mph90%29.91 "Hg10 mi
4:52 AM73 °FPartly cloudy.6 mph90%29.91 "Hg10 mi
3:52 AM73 °FPartly cloudy.5 mph90%29.93 "Hg10 mi
2:52 AM73 °FPassing clouds.3 mph88%29.94 "Hg10 mi
Weather by CustomWeather, © 2016

See weather overviewHow to use our weather pages